• In Germany
  • List of Countries
  • For 7 days
  • Water Temperature
  • Satellite Maps
  • Weather Map
  • Weather Widgets
  • user-avatar
    Login

    Hourly Weather Gjirokaster

    Today, 21 August, Monday

    Time Temperature Precipitation Wind Pressure Humidity
    00:00 +16°C° 0 mm 2 mps 651 mmHg 57%
    01:00 +16°C° 0 mm 2 mps 651 mmHg 57%
    02:00 +16°C° 0.5 mm 3 mps 651 mmHg 62%
    03:00 +16°C° 0.5 mm 3 mps 651 mmHg 67%
    04:00 +14°C° 0.5 mm 3 mps 650 mmHg 71%
    05:00 +16°C° 0.2 mm 3 mps 651 mmHg 71%
    06:00 +16°C° 0.2 mm 2 mps 651 mmHg 71%
    07:00 +17°C° 0.2 mm 2 mps 651 mmHg 71%
    08:00 +19°C° 0.2 mm 2 mps 651 mmHg 61%
    09:00 +21°C° 0.2 mm 2 mps 652 mmHg 51%
    10:00 +24°C° 0.2 mm 2 mps 652 mmHg 41%
    11:00 +24°C° 0.1 mm 3 mps 652 mmHg 40%
    12:00 +25°C° 0.1 mm 3 mps 652 mmHg 40%
    13:00 +25°C° 0.1 mm 4 mps 652 mmHg 39%
    14:00 +25°C° 0.1 mm 4 mps 652 mmHg 42%
    15:00 +23°C° 0.1 mm 4 mps 652 mmHg 45%
    16:00 +22°C° 0.1 mm 4 mps 651 mmHg 48%
    17:00 +21°C° 0.1 mm 4 mps 651 mmHg 53%
    18:00 +19°C° 0.1 mm 4 mps 651 mmHg 59%
    19:00 +18°C° 0.1 mm 4 mps 651 mmHg 65%
    20:00 +17°C° 0 mm 4 mps 651 mmHg 68%
    21:00 +16°C° 0 mm 3 mps 651 mmHg 71%
    22:00 +16°C° 0 mm 3 mps 651 mmHg 74%
    23:00 +14°C° 0 mm 3 mps 651 mmHg 74%

    Tomorrow, 22 August, Tuesday

    Time Temperature Precipitation Wind Pressure Humidity
    00:00 +14°C° 0 mm 3 mps 651 mmHg 73%
    01:00 +13°C° 0 mm 3 mps 651 mmHg 73%
    02:00 +13°C° 0 mm 3 mps 651 mmHg 72%
    03:00 +12°C° 0 mm 3 mps 651 mmHg 71%
    04:00 +13°C° 0 mm 2 mps 651 mmHg 69%
    05:00 +14°C° 0 mm 2 mps 651 mmHg 63%
    06:00 +14°C° 0 mm 3 mps 652 mmHg 57%
    07:00 +16°C° 0 mm 3 mps 652 mmHg 51%
    08:00 +18°C° 0 mm 2 mps 653 mmHg 45%
    09:00 +20°C° 0 mm 2 mps 654 mmHg 40%
    10:00 +23°C° 0 mm 2 mps 654 mmHg 35%
    11:00 +24°C° 0 mm 3 mps 654 mmHg 33%
    12:00 +24°C° 0 mm 3 mps 654 mmHg 31%
    13:00 +25°C° 0 mm 4 mps 654 mmHg 29%
    14:00 +25°C° 0 mm 4 mps 654 mmHg 29%
    15:00 +25°C° 0 mm 5 mps 654 mmHg 29%
    16:00 +25°C° 0 mm 5 mps 653 mmHg 28%
    17:00 +21°C° 0 mm 5 mps 653 mmHg 33%
    18:00 +19°C° 0 mm 4 mps 653 mmHg 38%
    19:00 +17°C° 0 mm 4 mps 652 mmHg 43%
    20:00 +16°C° 0 mm 3 mps 653 mmHg 43%
    21:00 +14°C° 0 mm 3 mps 653 mmHg 43%
    22:00 +13°C° 0 mm 3 mps 653 mmHg 44%
    23:00 +13°C° 0 mm 3 mps 653 mmHg 42%

    Day after tomorrow, 23 August, Wednesday

    Time Temperature Precipitation Wind Pressure Humidity
    00:00 +13°C° 0 mm 3 mps 653 mmHg 40%
    01:00 +13°C° 0 mm 2 mps 652 mmHg 37%
    02:00 +13°C° 0 mm 2 mps 652 mmHg 36%
    03:00 +13°C° 0 mm 2 mps 652 mmHg 35%
    04:00 +13°C° 0 mm 2 mps 652 mmHg 34%
    05:00 +14°C° 0 mm 2 mps 653 mmHg 33%
    06:00 +16°C° 0 mm 2 mps 654 mmHg 32%
    07:00 +17°C° 0 mm 2 mps 654 mmHg 31%
    08:00 +19°C° 0 mm 2 mps 655 mmHg 32%
    09:00 +22°C° 0 mm 1 mps 655 mmHg 33%
    10:00 +24°C° 0 mm 1 mps 656 mmHg 34%
    11:00 +25°C° 0 mm 2 mps 656 mmHg 33%
    12:00 +25°C° 0 mm 3 mps 656 mmHg 32%
    13:00 +25°C° 0 mm 3 mps 656 mmHg 31%
    14:00 +25°C° 0 mm 3 mps 655 mmHg 31%
    15:00 +25°C° 0 mm 4 mps 655 mmHg 32%
    16:00 +23°C° 0 mm 4 mps 655 mmHg 33%
    17:00 +21°C° 0 mm 3 mps 655 mmHg 37%
    18:00 +19°C° 0 mm 3 mps 654 mmHg 42%
    19:00 +17°C° 0 mm 3 mps 654 mmHg 46%
    20:00 +16°C° 0 mm 2 mps 654 mmHg 46%
    21:00 +15°C° 0 mm 2 mps 654 mmHg 46%
    22:00 +15°C° 0 mm 2 mps 654 mmHg 47%
    23:00 +14°C° 0 mm 2 mps 654 mmHg 46%

    24 August, Thursday

    Time Temperature Precipitation Wind Pressure Humidity
    00:00 +14°C° 0 mm 2 mps 654 mmHg 46%
    01:00 +14°C° 0 mm 2 mps 654 mmHg 46%
    02:00 +14°C° 0 mm 2 mps 654 mmHg 45%
    03:00 +13°C° 0 mm 2 mps 654 mmHg 45%
    04:00 +13°C° 0 mm 2 mps 654 mmHg 45%
    05:00 +15°C° 0 mm 2 mps 654 mmHg 43%
    06:00 +16°C° 0 mm 2 mps 655 mmHg 40%
    07:00 +18°C° 0 mm 2 mps 655 mmHg 38%
    08:00 +20°C° 0 mm 2 mps 656 mmHg 34%
    09:00 +23°C° 0 mm 1 mps 657 mmHg 30%
    10:00 +25°C° 0 mm 1 mps 657 mmHg 26%
    11:00 +26°C° 0 mm 2 mps 657 mmHg 25%
    12:00 +27°C° 0 mm 2 mps 657 mmHg 24%
    13:00 +27°C° 0 mm 3 mps 657 mmHg 23%
    14:00 +27°C° 0 mm 3 mps 657 mmHg 23%
    15:00 +26°C° 0 mm 3 mps 657 mmHg 24%
    16:00 +26°C° 0 mm 4 mps 656 mmHg 25%
    17:00 +24°C° 0 mm 3 mps 656 mmHg 30%
    18:00 +20°C° 0 mm 3 mps 656 mmHg 34%
    19:00 +18°C° 0 mm 2 mps 655 mmHg 39%
    20:00 +17°C° 0 mm 2 mps 655 mmHg 39%
    21:00 +17°C° 0 mm 2 mps 655 mmHg 39%
    22:00 +16°C° 0 mm 2 mps 655 mmHg 39%
    23:00 +16°C° 0 mm 2 mps 655 mmHg 39%

    25 August, Friday

    Time Temperature Precipitation Wind Pressure Humidity
    00:00 +16°C° 0 mm 2 mps 655 mmHg 39%
    01:00 +15°C° 0 mm 2 mps 655 mmHg 39%
    02:00 +15°C° 0 mm 2 mps 655 mmHg 38%
    03:00 +15°C° 0 mm 2 mps 655 mmHg 38%
    04:00 +14°C° 0 mm 2 mps 655 mmHg 38%
    05:00 +16°C° 0 mm 2 mps 655 mmHg 36%
    06:00 +17°C° 0 mm 2 mps 656 mmHg 34%
    07:00 +18°C° 0 mm 2 mps 656 mmHg 33%
    08:00 +21°C° 0 mm 2 mps 657 mmHg 28%
    09:00 +24°C° 0 mm 1 mps 657 mmHg 24%
    10:00 +27°C° 0 mm 1 mps 658 mmHg 20%
    11:00 +27°C° 0 mm 2 mps 658 mmHg 19%
    12:00 +28°C° 0 mm 2 mps 658 mmHg 19%
    13:00 +29°C° 0 mm 3 mps 658 mmHg 18%
    14:00 +28°C° 0 mm 3 mps 657 mmHg 20%
    15:00 +28°C° 0 mm 3 mps 657 mmHg 21%
    16:00 +27°C° 0 mm 3 mps 657 mmHg 22%
    17:00 +25°C° 0 mm 2 mps 656 mmHg 27%
    18:00 +21°C° 0 mm 2 mps 656 mmHg 32%
    19:00 +19°C° 0 mm 2 mps 655 mmHg 38%
    20:00 +18°C° 0 mm 2 mps 655 mmHg 38%
    21:00 +17°C° 0 mm 2 mps 656 mmHg 39%
    22:00 +17°C° 0 mm 2 mps 656 mmHg 39%
    23:00 +16°C° 0 mm 2 mps 655 mmHg 40%

    26 August, Saturday

    Time Temperature Precipitation Wind Pressure Humidity
    00:00 +16°C° 0 mm 2 mps 655 mmHg 40%
    01:00 +15°C° 0 mm 2 mps 655 mmHg 41%
    02:00 +15°C° 0 mm 2 mps 655 mmHg 42%
    03:00 +15°C° 0 mm 2 mps 655 mmHg 42%
    04:00 +14°C° 0 mm 2 mps 655 mmHg 43%
    05:00 +16°C° 0 mm 2 mps 655 mmHg 42%
    06:00 +17°C° 0 mm 2 mps 655 mmHg 40%
    07:00 +18°C° 0 mm 2 mps 656 mmHg 38%
    08:00 +21°C° 0 mm 2 mps 656 mmHg 33%
    09:00 +24°C° 0 mm 1 mps 657 mmHg 28%
    10:00 +27°C° 0 mm 1 mps 657 mmHg 24%
    11:00 +28°C° 0 mm 2 mps 657 mmHg 22%
    12:00 +28°C° 0 mm 2 mps 657 mmHg 21%
    13:00 +29°C° 0 mm 3 mps 657 mmHg 20%
    14:00 +29°C° 0 mm 3 mps 657 mmHg 22%
    15:00 +28°C° 0 mm 3 mps 656 mmHg 23%
    16:00 +28°C° 0 mm 3 mps 656 mmHg 24%
    17:00 +25°C° 0 mm 2 mps 656 mmHg 30%
    18:00 +21°C° 0 mm 2 mps 655 mmHg 35%
    19:00 +19°C° 0 mm 2 mps 655 mmHg 41%
    20:00 +18°C° 0 mm 2 mps 655 mmHg 42%
    21:00 +18°C° 0 mm 2 mps 655 mmHg 42%
    22:00 +17°C° 0 mm 2 mps 655 mmHg 43%
    23:00 +17°C° 0 mm 2 mps 655 mmHg 43%
    Show more